Year,Month,Day,Hour,Minute,Value (Times are PST for barometer in hPa)
2006,12,15,00,00,979.34
2006,12,15,00,01,979.34
2006,12,15,00,02,979.38
2006,12,15,00,03,979.31
2006,12,15,00,04,979.34
2006,12,15,00,05,979.32
2006,12,15,00,06,979.41
2006,12,15,00,07,979.34
2006,12,15,00,08,979.34
2006,12,15,00,09,979.34
2006,12,15,00,10,979.34
2006,12,15,00,11,979.34
2006,12,15,00,12,979.38
2006,12,15,00,13,979.41
2006,12,15,00,14,979.38
2006,12,15,00,15,979.41
2006,12,15,00,16,979.51
2006,12,15,00,17,979.55
2006,12,15,00,18,979.61
2006,12,15,00,19,979.61
2006,12,15,00,20,979.68
2006,12,15,00,21,979.61
2006,12,15,00,22,979.58
2006,12,15,00,23,979.65
2006,12,15,00,24,979.61
2006,12,15,00,25,979.65
2006,12,15,00,26,979.65
2006,12,15,00,27,979.69
2006,12,15,00,28,979.82
2006,12,15,00,29,979.82
2006,12,15,00,30,979.92
2006,12,15,00,31,979.95
2006,12,15,00,32,979.99
2006,12,15,00,33,980.06
2006,12,15,00,34,979.99
2006,12,15,00,35,979.99
2006,12,15,00,36,979.99
2006,12,15,00,37,979.99
2006,12,15,00,38,979.95
2006,12,15,00,39,980.02
2006,12,15,00,40,980.09
2006,12,15,00,41,980.12
2006,12,15,00,42,980.19
2006,12,15,00,43,980.26
2006,12,15,00,44,980.19
2006,12,15,00,45,980.26
2006,12,15,00,46,980.22
2006,12,15,00,47,980.29
2006,12,15,00,48,980.40
2006,12,15,00,49,980.53
2006,12,15,00,50,980.53
2006,12,15,00,51,980.53
2006,12,15,00,52,980.56
2006,12,15,00,53,980.63
2006,12,15,00,54,980.66
2006,12,15,00,55,980.70
2006,12,15,00,56,980.77
2006,12,15,00,57,980.73
2006,12,15,00,58,980.77
2006,12,15,00,59,980.84
2006,12,15,01,00,980.94
2006,12,15,01,01,980.94
2006,12,15,01,02,980.90
2006,12,15,01,03,980.91
2006,12,15,01,04,981.04
2006,12,15,01,05,980.97
2006,12,15,01,06,981.04
2006,12,15,01,07,981.07
2006,12,15,01,08,981.10
2006,12,15,01,09,981.17
2006,12,15,01,10,981.24
2006,12,15,01,11,981.34
2006,12,15,01,12,981.32
2006,12,15,01,13,981.44
2006,12,15,01,14,981.51
2006,12,15,01,15,981.58
2006,12,15,01,16,981.59
2006,12,15,01,17,981.71
2006,12,15,01,18,981.71
2006,12,15,01,19,981.78
2006,12,15,01,20,981.83
2006,12,15,01,21,981.92
2006,12,15,01,22,981.92
2006,12,15,01,23,981.95
2006,12,15,01,24,982.05
2006,12,15,01,25,982.12
2006,12,15,01,26,982.16
2006,12,15,01,27,982.29
2006,12,15,01,28,982.36
2006,12,15,01,29,982.39
2006,12,15,01,30,982.50
2006,12,15,01,31,982.63
2006,12,15,01,32,982.80
2006,12,15,01,33,982.87
2006,12,15,01,34,983.07
2006,12,15,01,35,983.01
2006,12,15,01,36,983.17
2006,12,15,01,37,983.27
2006,12,15,01,38,983.32
2006,12,15,01,39,983.41
2006,12,15,01,40,983.45
2006,12,15,01,41,983.61
2006,12,15,01,42,983.62
2006,12,15,01,43,983.75
2006,12,15,01,44,983.82
2006,12,15,01,45,983.92
2006,12,15,01,46,983.92
2006,12,15,01,47,984.02
2006,12,15,01,48,984.12
2006,12,15,01,49,984.16
2006,12,15,01,50,984.32
2006,12,15,01,51,984.25
2006,12,15,01,52,984.25
2006,12,15,01,53,984.30
2006,12,15,01,54,984.53
2006,12,15,01,55,984.63
2006,12,15,01,56,984.69
2006,12,15,01,57,984.70
2006,12,15,01,58,984.84
2006,12,15,01,59,984.97
2006,12,15,02,00,985.03
2006,12,15,02,01,985.04
2006,12,15,02,02,985.21
2006,12,15,02,03,985.30
2006,12,15,02,04,985.37
2006,12,15,02,05,985.44
2006,12,15,02,06,985.48
2006,12,15,02,07,985.62
2006,12,15,02,08,985.74
2006,12,15,02,09,985.72
2006,12,15,02,10,985.81
2006,12,15,02,11,985.81
2006,12,15,02,12,985.88
2006,12,15,02,13,985.95
2006,12,15,02,14,986.05
2006,12,15,02,15,986.12
2006,12,15,02,16,986.18
2006,12,15,02,17,986.29
2006,12,15,02,18,986.32
2006,12,15,02,19,986.39
2006,12,15,02,20,986.40
2006,12,15,02,21,986.59
2006,12,15,02,22,986.56
2006,12,15,02,23,986.53
2006,12,15,02,24,986.69
2006,12,15,02,25,986.67
2006,12,15,02,26,986.95
2006,12,15,02,27,987.39
2006,12,15,02,28,987.16
2006,12,15,02,29,987.04
2006,12,15,02,30,987.20
2006,12,15,02,31,987.30
2006,12,15,02,32,987.40
2006,12,15,02,33,987.47
2006,12,15,02,34,987.62
2006,12,15,02,35,987.81
2006,12,15,02,36,987.81
2006,12,15,02,37,987.88
2006,12,15,02,38,987.98
2006,12,15,02,39,988.01
2006,12,15,02,40,988.12
2006,12,15,02,41,988.25
2006,12,15,02,42,988.26
2006,12,15,02,43,988.42
2006,12,15,02,44,988.40
2006,12,15,02,45,988.55
2006,12,15,02,46,988.55
2006,12,15,02,47,988.56
2006,12,15,02,48,988.76
2006,12,15,02,49,988.89
2006,12,15,02,50,988.96
2006,12,15,02,51,988.93
2006,12,15,02,52,989.16
2006,12,15,02,53,989.13
2006,12,15,02,54,989.20
2006,12,15,02,55,989.20
2006,12,15,02,56,989.27
2006,12,15,02,57,989.27
2006,12,15,02,58,989.37
2006,12,15,03,00,989.47
2006,12,15,03,01,989.48
2006,12,15,03,02,989.67
2006,12,15,03,03,989.71
2006,12,15,03,04,989.93
2006,12,15,03,05,989.81
2006,12,15,03,06,989.82
2006,12,15,03,07,990.01
2006,12,15,03,08,989.95
2006,12,15,03,09,990.05
2006,12,15,03,10,990.18
2006,12,15,03,12,990.19
2006,12,15,03,13,990.25
2006,12,15,03,14,990.21
2006,12,15,03,15,990.18
2006,12,15,03,16,990.28
2006,12,15,03,17,990.25
2006,12,15,03,18,990.32
2006,12,15,03,19,990.38
2006,12,15,03,20,990.35
2006,12,15,03,21,990.45
2006,12,15,03,22,990.49
2006,12,15,03,23,990.45
2006,12,15,03,24,990.52
2006,12,15,03,25,990.65
2006,12,15,03,26,990.73
2006,12,15,03,27,990.90
2006,12,15,03,28,990.98
2006,12,15,03,29,990.83
2006,12,15,03,30,990.95
2006,12,15,03,31,991.26
2006,12,15,03,32,991.23
2006,12,15,03,33,991.33
2006,12,15,03,34,991.40
2006,12,15,03,35,991.47
2006,12,15,03,36,991.57
2006,12,15,15,02,1013.68
2006,12,15,15,03,1013.61
2006,12,15,15,04,1013.61
2006,12,15,15,05,1013.72
2006,12,15,15,06,1013.75
2006,12,15,15,07,1013.72
2006,12,15,15,08,1013.72
2006,12,15,15,09,1013.75
2006,12,15,15,10,1013.72
2006,12,15,15,11,1013.78
2006,12,15,15,12,1013.78
2006,12,15,15,13,1013.78
2006,12,15,15,14,1013.72
2006,12,15,15,15,1013.75
2006,12,15,15,16,1013.75
2006,12,15,15,17,1013.75
2006,12,15,15,18,1013.78
2006,12,15,15,19,1013.82
2006,12,15,15,20,1013.78
2006,12,15,15,21,1013.78
2006,12,15,15,22,1013.78
2006,12,15,15,23,1013.82
2006,12,15,15,24,1013.78
2006,12,15,15,25,1013.72
2006,12,15,15,26,1013.75
2006,12,15,15,27,1013.72
2006,12,15,15,28,1013.82
2006,12,15,15,29,1013.72
2006,12,15,15,30,1013.78
2006,12,15,15,31,1013.85
2006,12,15,15,32,1013.82
2006,12,15,15,33,1013.82
2006,12,15,15,34,1013.82
2006,12,15,15,35,1013.85
2006,12,15,15,36,1013.85
2006,12,15,15,37,1013.82
2006,12,15,15,38,1013.85
2006,12,15,15,39,1013.82
2006,12,15,15,40,1013.75
2006,12,15,15,41,1013.75
2006,12,15,15,42,1013.78
2006,12,15,15,43,1013.78
2006,12,15,15,44,1013.78
2006,12,15,15,45,1013.72
2006,12,15,15,46,1013.78
2006,12,15,15,47,1013.82
2006,12,15,15,48,1013.82
2006,12,15,15,49,1013.85
2006,12,15,15,50,1013.82
2006,12,15,15,51,1013.92
2006,12,15,15,52,1013.92
2006,12,15,15,53,1013.92
2006,12,15,15,54,1013.95
2006,12,15,15,55,1013.99
2006,12,15,15,56,1014.02
2006,12,15,15,57,1013.95
2006,12,15,15,58,1014.02
2006,12,15,15,59,1014.02
2006,12,15,16,00,1013.99
2006,12,15,16,01,1013.99
2006,12,15,16,02,1014.02
2006,12,15,16,03,1014.09
2006,12,15,16,04,1014.12
2006,12,15,16,05,1014.12
2006,12,15,16,06,1014.09
2006,12,15,16,07,1014.09
2006,12,15,16,08,1014.05
2006,12,15,16,09,1014.09
2006,12,15,16,10,1014.02
2006,12,15,16,11,1014.02
2006,12,15,16,12,1014.02
2006,12,15,16,13,1014.02
2006,12,15,16,14,1014.02
2006,12,15,16,15,1014.05
2006,12,15,16,16,1014.02
2006,12,15,16,17,1014.05
2006,12,15,16,18,1014.02
2006,12,15,16,19,1014.02
2006,12,15,16,20,1014.09
2006,12,15,16,21,1014.09
2006,12,15,16,22,1014.09
2006,12,15,16,23,1014.12
2006,12,15,16,24,1014.16
2006,12,15,16,25,1014.19
2006,12,15,16,26,1014.19
2006,12,15,16,27,1014.19
2006,12,15,16,28,1014.19
2006,12,15,16,29,1014.26
2006,12,15,16,30,1014.29
2006,12,15,16,31,1014.26
2006,12,15,16,32,1014.22
2006,12,15,16,33,1014.22
2006,12,15,16,34,1014.22
2006,12,15,16,35,1014.22
2006,12,15,16,36,1014.26
2006,12,15,16,37,1014.33
2006,12,15,16,38,1014.36
2006,12,15,16,39,1014.36
2006,12,15,16,40,1014.36
2006,12,15,16,41,1014.39
2006,12,15,16,42,1014.39
2006,12,15,16,43,1014.36
2006,12,15,16,44,1014.43
2006,12,15,16,45,1014.29
2006,12,15,16,46,1014.36
2006,12,15,16,47,1014.39
2006,12,15,16,48,1014.39
2006,12,15,16,49,1014.39
2006,12,15,16,50,1014.43
2006,12,15,16,51,1014.39
2006,12,15,16,52,1014.46
2006,12,15,16,53,1014.46
2006,12,15,16,54,1014.39
2006,12,15,16,55,1014.49
2006,12,15,16,56,1014.53
2006,12,15,16,57,1014.60
2006,12,15,16,58,1014.66
2006,12,15,16,59,1014.63
2006,12,15,17,00,1014.60
2006,12,15,17,01,1014.63
2006,12,15,17,02,1014.66
2006,12,15,17,03,1014.63
2006,12,15,17,04,1014.60
2006,12,15,17,05,1014.56
2006,12,15,17,06,1014.60
2006,12,15,17,07,1014.56
2006,12,15,17,08,1014.60
2006,12,15,17,09,1014.53
2006,12,15,17,10,1014.63
2006,12,15,17,11,1014.60
2006,12,15,17,12,1014.63
2006,12,15,17,13,1014.66
2006,12,15,17,14,1014.66
2006,12,15,17,15,1014.73
2006,12,15,17,16,1014.70
2006,12,15,17,17,1014.73
2006,12,15,17,18,1014.60
2006,12,15,17,19,1014.77
2006,12,15,17,20,1014.70
2006,12,15,17,21,1014.66
2006,12,15,17,22,1014.66
2006,12,15,17,23,1014.70
2006,12,15,17,24,1014.66
2006,12,15,17,25,1014.70
2006,12,15,17,26,1014.66
2006,12,15,17,27,1014.73
2006,12,15,17,28,1014.70
2006,12,15,17,29,1014.70
2006,12,15,17,30,1014.63
2006,12,15,17,31,1014.66
2006,12,15,17,32,1014.70
2006,12,15,17,33,1014.70
2006,12,15,17,34,1014.66
2006,12,15,17,35,1014.70
2006,12,15,17,36,1014.70
2006,12,15,17,37,1014.70
2006,12,15,17,38,1014.66
2006,12,15,17,39,1014.66
2006,12,15,17,40,1014.70
2006,12,15,17,41,1014.66
2006,12,15,17,42,1014.66
2006,12,15,17,43,1014.73
2006,12,15,17,44,1014.63
2006,12,15,17,45,1014.66
2006,12,15,17,46,1014.63
2006,12,15,17,47,1014.70
2006,12,15,17,48,1014.73
2006,12,15,17,49,1014.79
2006,12,15,17,50,1014.63
2006,12,15,17,51,1014.73
2006,12,15,17,52,1014.73
2006,12,15,17,53,1014.73
2006,12,15,17,54,1014.70
2006,12,15,17,55,1014.70
2006,12,15,17,56,1014.70
2006,12,15,17,57,1014.77
2006,12,15,17,58,1014.77
2006,12,15,17,59,1014.80
2006,12,15,18,00,1014.77
2006,12,15,18,01,1014.77
2006,12,15,18,02,1014.83
2006,12,15,18,03,1014.87
2006,12,15,18,04,1014.83
2006,12,15,18,05,1014.90
2006,12,15,18,06,1014.93
2006,12,15,18,07,1014.97
2006,12,15,18,08,1014.93
2006,12,15,18,09,1015.00
2006,12,15,18,10,1014.97
2006,12,15,18,11,1015.04
2006,12,15,18,12,1015.00
2006,12,15,18,13,1015.00
2006,12,15,18,14,1015.04
2006,12,15,18,15,1015.07
2006,12,15,18,16,1015.10
2006,12,15,18,17,1015.10
2006,12,15,18,18,1015.07
2006,12,15,18,19,1015.10
2006,12,15,18,20,1015.17
2006,12,15,18,21,1015.10
2006,12,15,18,22,1015.10
2006,12,15,18,23,1015.14
2006,12,15,18,24,1015.14
2006,12,15,18,25,1015.14
2006,12,15,18,26,1015.14
2006,12,15,18,27,1015.14
2006,12,15,18,28,1015.10
2006,12,15,18,29,1015.07
2006,12,15,18,30,1015.10
2006,12,15,18,31,1015.07
2006,12,15,18,32,1015.10
2006,12,15,18,33,1015.14
2006,12,15,18,34,1015.17
2006,12,15,18,35,1015.14
2006,12,15,18,36,1015.10
2006,12,15,18,37,1015.07
2006,12,15,18,38,1015.07
2006,12,15,18,39,1015.04
2006,12,15,18,40,1015.04
2006,12,15,18,41,1015.04
2006,12,15,18,42,1015.07
2006,12,15,18,43,1015.04
2006,12,15,18,44,1015.10
2006,12,15,18,45,1015.10
2006,12,15,18,46,1015.17
2006,12,15,18,47,1015.17
2006,12,15,18,48,1015.17
2006,12,15,18,49,1015.17
2006,12,15,18,50,1015.14
2006,12,15,18,51,1015.14
2006,12,15,18,52,1015.14
2006,12,15,18,53,1015.14
2006,12,15,18,54,1015.14
2006,12,15,18,55,1015.21
2006,12,15,18,56,1015.17
2006,12,15,18,57,1015.21
2006,12,15,18,58,1015.24
2006,12,15,18,59,1015.24
2006,12,15,19,00,1015.21
2006,12,15,19,01,1015.21
2006,12,15,19,02,1015.14
2006,12,15,19,03,1015.24
2006,12,15,19,04,1015.17
2006,12,15,19,05,1015.14
2006,12,15,19,06,1015.14
2006,12,15,19,07,1015.10
2006,12,15,19,08,1015.14
2006,12,15,19,09,1015.24
2006,12,15,19,10,1015.21
2006,12,15,19,11,1015.14
2006,12,15,19,12,1015.17
2006,12,15,19,13,1015.10
2006,12,15,19,14,1015.14
2006,12,15,19,15,1015.14
2006,12,15,19,16,1015.14
2006,12,15,19,17,1015.14
2006,12,15,19,18,1015.17
2006,12,15,19,19,1015.14
2006,12,15,19,20,1015.17
2006,12,15,19,21,1015.17
2006,12,15,19,22,1015.14
2006,12,15,19,23,1015.17
2006,12,15,19,24,1015.17
2006,12,15,19,25,1015.17
2006,12,15,19,26,1015.24
2006,12,15,19,27,1015.17
2006,12,15,19,28,1015.14
2006,12,15,19,29,1015.14
2006,12,15,19,30,1015.14
2006,12,15,19,31,1015.14
2006,12,15,19,32,1015.10
2006,12,15,19,33,1015.10
2006,12,15,19,34,1015.10
2006,12,15,19,35,1015.10
2006,12,15,19,36,1015.07
2006,12,15,19,37,1015.10
2006,12,15,19,38,1015.10
2006,12,15,19,39,1015.10
2006,12,15,19,40,1015.10
2006,12,15,19,41,1015.17
2006,12,15,19,42,1015.14
2006,12,15,19,43,1015.17
2006,12,15,19,44,1015.10
2006,12,15,19,45,1015.17
2006,12,15,19,46,1015.14
2006,12,15,19,47,1015.17
2006,12,15,19,48,1015.17
2006,12,15,19,49,1015.24
2006,12,15,19,50,1015.21
2006,12,15,19,51,1015.17
2006,12,15,19,52,1015.23
2006,12,15,19,53,1015.17
2006,12,15,19,54,1015.17
2006,12,15,19,55,1015.21
2006,12,15,19,56,1015.17
2006,12,15,19,57,1015.14
2006,12,15,19,58,1015.24
2006,12,15,19,59,1015.24
2006,12,15,20,00,1015.24
2006,12,15,20,01,1015.31
2006,12,15,20,02,1015.24
2006,12,15,20,03,1015.31
2006,12,15,20,04,1015.34
2006,12,15,20,05,1015.34
2006,12,15,20,06,1015.34
2006,12,15,20,07,1015.38
2006,12,15,20,08,1015.31
2006,12,15,20,09,1015.38
2006,12,15,20,10,1015.38
2006,12,15,20,11,1015.41
2006,12,15,20,12,1015.38
2006,12,15,20,13,1015.41
2006,12,15,20,14,1015.41
2006,12,15,20,15,1015.41
2006,12,15,20,16,1015.38
2006,12,15,20,17,1015.44
2006,12,15,20,18,1015.48
2006,12,15,20,19,1015.48
2006,12,15,20,20,1015.44
2006,12,15,20,21,1015.41
2006,12,15,20,22,1015.48
2006,12,15,20,23,1015.44
2006,12,15,20,24,1015.38
2006,12,15,20,25,1015.34
2006,12,15,20,26,1015.34
2006,12,15,20,27,1015.38
2006,12,15,20,28,1015.34
2006,12,15,20,29,1015.34
2006,12,15,20,30,1015.38
2006,12,15,20,31,1015.34
2006,12,15,20,32,1015.41
2006,12,15,20,33,1015.34
2006,12,15,20,34,1015.38
2006,12,15,20,35,1015.34
2006,12,15,20,36,1015.31
2006,12,15,20,37,1015.31
2006,12,15,20,38,1015.34
2006,12,15,20,39,1015.34
2006,12,15,20,40,1015.31
2006,12,15,20,41,1015.34
2006,12,15,20,42,1015.34
2006,12,15,20,43,1015.38
2006,12,15,20,44,1015.31
2006,12,15,20,45,1015.34
2006,12,15,20,46,1015.34
2006,12,15,20,47,1015.34
2006,12,15,20,48,1015.41
2006,12,15,20,49,1015.34
2006,12,15,20,50,1015.38
2006,12,15,20,51,1015.41
2006,12,15,20,52,1015.38
2006,12,15,20,53,1015.34
2006,12,15,20,54,1015.38
2006,12,15,20,55,1015.31
2006,12,15,20,56,1015.38
2006,12,15,20,57,1015.34
2006,12,15,20,58,1015.27
2006,12,15,20,59,1015.27
2006,12,15,21,00,1015.31
2006,12,15,21,01,1015.24
2006,12,15,21,02,1015.27
2006,12,15,21,03,1015.27
2006,12,15,21,04,1015.27
2006,12,15,21,05,1015.27
2006,12,15,21,06,1015.27
2006,12,15,21,07,1015.27
2006,12,15,21,08,1015.24
2006,12,15,21,09,1015.34
2006,12,15,21,10,1015.31
2006,12,15,21,11,1015.31
2006,12,15,21,12,1015.27
2006,12,15,21,13,1015.31
2006,12,15,21,14,1015.31
2006,12,15,21,15,1015.31
2006,12,15,21,16,1015.31
2006,12,15,21,17,1015.27
2006,12,15,21,18,1015.34
2006,12,15,21,19,1015.31
2006,12,15,21,20,1015.27
2006,12,15,21,21,1015.24
2006,12,15,21,22,1015.27
2006,12,15,21,23,1015.27
2006,12,15,21,24,1015.31
2006,12,15,21,25,1015.34
2006,12,15,21,26,1015.34
2006,12,15,21,27,1015.31
2006,12,15,21,28,1015.34
2006,12,15,21,29,1015.38
2006,12,15,21,30,1015.34
2006,12,15,21,31,1015.31
2006,12,15,21,32,1015.38
2006,12,15,21,33,1015.41
2006,12,15,21,34,1015.44
2006,12,15,21,35,1015.41
2006,12,15,21,36,1015.58
2006,12,15,21,37,1015.48
2006,12,15,21,38,1015.48
2006,12,15,21,39,1015.44
2006,12,15,21,40,1015.44
2006,12,15,21,41,1015.48
2006,12,15,21,42,1015.48
2006,12,15,21,43,1015.58
2006,12,15,21,44,1015.54
2006,12,15,21,45,1015.58
2006,12,15,21,46,1015.54
2006,12,15,21,47,1015.54
2006,12,15,21,48,1015.58
2006,12,15,21,49,1015.54
2006,12,15,21,50,1015.58
2006,12,15,21,51,1015.65
2006,12,15,21,52,1015.54
2006,12,15,21,53,1015.64
2006,12,15,21,54,1015.65
2006,12,15,21,55,1015.65
2006,12,15,21,56,1015.65
2006,12,15,21,57,1015.65
2006,12,15,21,58,1015.65
2006,12,15,21,59,1015.65
2006,12,15,22,00,1015.71
2006,12,15,22,01,1015.68
2006,12,15,22,02,1015.65
2006,12,15,22,03,1015.65
2006,12,15,22,04,1015.68
2006,12,15,22,05,1015.68
2006,12,15,22,06,1015.65
2006,12,15,22,07,1015.68
2006,12,15,22,08,1015.65
2006,12,15,22,09,1015.71
2006,12,15,22,10,1015.68
2006,12,15,22,11,1015.71
2006,12,15,22,12,1015.78
2006,12,15,22,13,1015.75
2006,12,15,22,14,1015.75
2006,12,15,22,15,1015.71
2006,12,15,22,16,1015.72
2006,12,15,22,17,1015.82
2006,12,15,22,18,1015.82
2006,12,15,22,19,1015.75
2006,12,15,22,20,1015.78
2006,12,15,22,21,1015.82
2006,12,15,22,22,1015.82
2006,12,15,22,23,1015.82
2006,12,15,22,24,1015.85
2006,12,15,22,25,1015.82
2006,12,15,22,26,1015.78
2006,12,15,22,27,1015.82
2006,12,15,22,28,1015.78
2006,12,15,22,29,1015.85
2006,12,15,22,30,1015.82
2006,12,15,22,31,1015.85
2006,12,15,22,32,1015.88
2006,12,15,22,33,1015.88
2006,12,15,22,34,1015.85
2006,12,15,22,35,1015.85
2006,12,15,22,36,1015.88
2006,12,15,22,37,1015.88
2006,12,15,22,38,1015.92
2006,12,15,22,39,1015.95
2006,12,15,22,40,1015.95
2006,12,15,22,41,1015.95
2006,12,15,22,42,1016.02
2006,12,15,22,43,1015.98
2006,12,15,22,44,1016.02
2006,12,15,22,45,1015.98
2006,12,15,22,46,1015.98
2006,12,15,22,47,1015.95
2006,12,15,22,48,1015.98
2006,12,15,22,49,1015.98
2006,12,15,22,50,1015.98
2006,12,15,22,51,1016.02
2006,12,15,22,52,1015.98
2006,12,15,22,53,1016.05
2006,12,15,22,54,1016.05
2006,12,15,22,55,1016.02
2006,12,15,22,56,1016.05
2006,12,15,22,57,1016.12
2006,12,15,22,58,1016.12
2006,12,15,22,59,1016.12
2006,12,15,23,00,1016.09
2006,12,15,23,01,1016.19
2006,12,15,23,02,1016.19
2006,12,15,23,03,1016.22
2006,12,15,23,04,1016.19
2006,12,15,23,05,1016.19
2006,12,15,23,06,1016.26
2006,12,15,23,07,1016.29
2006,12,15,23,08,1016.26
2006,12,15,23,09,1016.36
2006,12,15,23,10,1016.32
2006,12,15,23,11,1016.39
2006,12,15,23,12,1016.36
2006,12,15,23,13,1016.32
2006,12,15,23,14,1016.42
2006,12,15,23,15,1016.36
2006,12,15,23,16,1016.36
2006,12,15,23,17,1016.36
2006,12,15,23,18,1016.36
2006,12,15,23,19,1016.32
2006,12,15,23,20,1016.29
2006,12,15,23,21,1016.32
2006,12,15,23,22,1016.29
2006,12,15,23,23,1016.32
2006,12,15,23,24,1016.32
2006,12,15,23,25,1016.26
2006,12,15,23,26,1016.22
2006,12,15,23,27,1016.22
2006,12,15,23,28,1016.22
2006,12,15,23,29,1016.19
2006,12,15,23,30,1016.19
2006,12,15,23,31,1016.22
2006,12,15,23,32,1016.09
2006,12,15,23,33,1016.12
2006,12,15,23,34,1016.12
2006,12,15,23,35,1016.15
2006,12,15,23,36,1016.12
2006,12,15,23,37,1016.12
2006,12,15,23,38,1016.12
2006,12,15,23,39,1016.15
2006,12,15,23,40,1016.09
2006,12,15,23,41,1016.12
2006,12,15,23,42,1016.12
2006,12,15,23,43,1016.09
2006,12,15,23,44,1016.15
2006,12,15,23,45,1016.12
2006,12,15,23,46,1016.15
2006,12,15,23,47,1016.15
2006,12,15,23,48,1016.22
2006,12,15,23,49,1016.19
2006,12,15,23,50,1016.19
2006,12,15,23,51,1016.15
2006,12,15,23,52,1016.19
2006,12,15,23,53,1016.19
2006,12,15,23,54,1016.19
2006,12,15,23,55,1016.22
2006,12,15,23,56,1016.12
2006,12,15,23,57,1016.09
2006,12,15,23,58,1016.12
2006,12,15,23,59,1016.09
